Weather in Vidzy

Belarus     55°23′33″N   26°37′54″E
temp.,
°C
wind,
m/s
gust,
m/s
humid.,
%
clouds,
%
prec.,
mm/h
press.,
hPa
HPBL,
m
21 june, mon
mon2100:00+21se38905 0.0 1017156
03:00+18sse389023 0.0 1017158
06:00+19sse259041 0.0 1017105
09:00+24ese35684 0.0 1016341
12:00+28se455677 0.0 10161032
15:00+29se46505 0.0 10151395
18:00+28ese68585 0.0 1014709
21:00+22ese378345 0.0 1014157
22 june, tue
tue2200:00+20ese3118990 0.0 1014237
03:00+19ese399767 0.0 1014198
06:00+20se41093100 0.0 1013315
09:00+24sse587874 0.1 1013603
12:00+25sse5881100 3.1 1014796
15:00+27s476699 3.8 10141248
18:00+28s376328 1.0 10131415
21:00+24sse23814 1.3 101453
23 june, wed
wed2300:00+21se23904 0.0 101447
03:00+19se37934 1.4 1015122
06:00+19se37946 0.1 1015140
09:00+23sse46780 0.1 1015381
12:00+28s46600 0.0 10161060
15:00+29s46510 0.0 10161550
18:00+29s355988 0.0 10161304
21:00+24wnw228395 0.2 101634
24 june, thu
thu2400:00+21nnw119196 2.4 101614
03:00+19nw1197100 5.9 101728
06:00+20nnw1296100 1.7 101756
09:00+22wnw1185100 1.7 1018291
12:00+24nne2276100 0.0 1017480
15:00+23n348799 1.7 1017174
18:00+26nne117146 1.4 1016473
21:00+24ene228552 1.4 101530
25 june, fri
fri2500:00+20e349526 1.5 101574
03:00+18e239582 1.5 101549
06:00+19e24968 0.8 1014100
09:00+24se34835 0.8 1013380
12:00+28sse46625 0.0 10131140
15:00+30sse355532 0.8 10121374
18:00+27s486782 0.2 1011464
21:00+18e1196100 5.9 101139